BEIDOU-2 G7 (C03)

Last updated on Sun Jun 21 2026 00:03:31 GMT+0000 (Coordinated Universal Time)

1 41586U 16037A 26171.55649015 -.00000358 00000+0 00000+0 0 9998 2 41586 1.7295 69.3546 0006474 358.1081 152.1423 1.00274867 6920
UTC large
Height (km)
Speed (km/s)
/
Latitude / Longitude
Inclination (degrees)
Orbital Period (minutes)
Azimuth
Elevation
Range (km)
Doppler Factor

Next 0 passes for location: London (51.5072 / 0.1276)

Sorry there are no passes over London.
BEIDOU-2 G7 (C03)